www.pogodaiklimat.ru

Погода и климат >> Архив погоды >> Россия >> Краснодарский край >> Кореновск


ПОГОДА в Кореновске

  • Прогноз погоды в Кореновске
  • Монитор погоды в Кореновске

АРХИВ ПОГОДЫ в Кореновске

Время (UTC), дата Ветер
(напр.,м/с)
 
Видим.   Явления Облачность Т
(С)
Тd
(С)
f
(%)
Тe
(С)
Тes
(С)
Комфортность P
(гПа)
Po
(гПа)
Тmin
(С)
Tmax
(С)
R
(мм)
R24
(мм)
S
(см)
06 9.01 СЗ 1 2000 м ливневой снег 10/10 600 м
[Cb cap]
-3.9 -5.0 92 -6 -6 1012.2 1006.0 -4.2
09 9.01 З 3 10 км в посл. час ливневой снег 10/10 600 м
[Cb cap]
-2.5 -4.5 86 -8 -8 1014.8 1008.6
12 9.01 ЮЗ 2 10 км 8/5 300 м
[St Ci fib]
-0.5 -5.3 70 -4 -3 1016.9 1010.8
15 9.01 Ю 2 10 км 1/0
[Ci fib]
-3.8 -7.0 78 -8 -8 1019.3 1013.1 -0.3 2
18 9.01 ЮВ 2 10 км 1/0
[Ci fib]
-4.9 -7.4 83 -9 -9 1020.9 1014.7
21 9.01 ЮВ 2 10 км 9/8 1000 м
[Sc Ac trans]
-5.2 -7.3 85 -9 -9 1022.0 1015.8
00 10.01 ЮВ 2 10 км 9/9 600 м
[Cb cap]
-1.8 -5.3 77 -6 -6 1023.3 1017.1
03 10.01 ЮВ 3 10 км {ливн. осадки} 10/10 600 м
[Cb cap]
-0.6 -5.0 72 -5 -5 1022.6 1016.5 -6.6 0.0 3
06 10.01 ЮВ 3 10 км {ливн. осадки} 9/6 600 м
[Cb cap Ac trans]
-1.8 -6.1 72 -7 -6 1023.1 1016.9
09 10.01 ЮВ 3 10 км 9/8 600 м
[Cb cap Ac trans Ci fib]
+2.2 -4.8 60 -2 -1 1022.1 1016.0
12 10.01 В 3 10 км 10/10
[Cb cap]
+3.5 -3.5 60 0 0 1020.7 1014.7
15 10.01 ЮВ 4 10 км 10/6 1000 м
[Cb cap Ac und]
+3.4 -4.1 58 -1 -1 1020.2 1014.2 +3.7
18 10.01 ЮВ 5 10 км 10/10 600 м
[Cb cap]
+2.8 -4.2 60 -2 -2 1019.5 1013.5
21 10.01 ЮВ 4 10 км 10/10 600 м
[Cb cap]
+2.0 -3.7 66 -3 -3 1018.4 1012.4
00 11.01 ЮВ 3 10 км 9/9 600 м
[Cb cap]
+1.6 -2.9 72 -2 -2 1018.2 1012.1
03 11.01 ЮВ 2 10 км слаб. ливневой дождь 10/10 600 м
[Cb cap]
+2.2 -2.1 73 -1 -1 1016.7 1010.7 +1.4 0.0 1
06 11.01 Ю 2 10 км слаб. ливневой дождь 10/10 600 м
[Cb cap]
+2.9 +0.5 84 -0 -0 1017.4 1011.4
09 11.01 Ю 4 10 км слаб. ливневой дождь 10/8 600 м
[Cb cap Ac und]
+8.5 +1.0 59 +6 +6 1015.8 1009.9
12 11.01 Ю 3 10 км {ливн. осадки} 10/8 600 м
[Cb cap Ac und]
+8.1 +2.8 69 +6 +6 1014.3 1008.4
15 11.01 Ю 4
{10}
10 км 10/5 600 м
[Cb cap Ac und]
+10.0 -2.4 42 +8 +8 1013.2 1007.4 +10.9 1
18 11.01 ЮЗ 6-12
{12}
10 км 8/8 600 м
[Cb cap]
+10.4 -0.1 48 +8 +8 1013.0 1007.2
21 11.01 ЮЗ 4
{12}
10 км {ливн. осадки} 9/9 600 м
[Cb cap]
+9.1 +3.7 69 +6 +6 1011.8 1006.0
00 12.01 ЮЗ 3
{10}
10 км слаб. ливневой дождь 10/10 600 м
[Cb cap]
+7.5 +5.5 87 +5 +5 1011.2 1005.3
03 12.01 З 4
{13}
10 км слаб. ливневой дождь 10/10 600 м
[Cb cap]
+3.5 +1.9 89 -1 -1 1011.2 1005.2 +3.5 5
06 12.01 З 5
{10}
10 км слаб. ливневой дождь 10/10 300 м
[Cb cap]
+2.2 -0.5 82 -3 -3 1013.2 1007.2 +2.1
09 12.01 З 3
{13}
10 км 10/10 600 м
[Cb cap]
+2.1 -1.3 78 -2 -2 1013.1 1007.1
12 12.01 З 3 10 км 10/10 600 м
[Cb cap]
+2.1 -1.6 76 -2 -2 1012.6 1006.6
15 12.01 З 1 10 км 9/9 600 м
[Cb cap]
+1.4 -1.8 79 -0 -0 1012.3 1006.2 +3.5 0.5
18 12.01 Ю 1 10 км 10/10 1000 м
[Cb cap]
+0.8 -1.7 83 -1 -1 1011.2 1005.2
21 12.01 ЮВ 1 10 км слаб. крупа 10/10 600 м
[Cb cap]
+0.6 -0.9 90 -1 -1 1009.9 1003.9
00 13.01 ЮВ 1 10 км слаб. ливневой снег [диам. отлож. мокр. снега мм] 10/10 600 м
[Cb cap]
+0.2 -0.7 94 -2 -2 1008.8 1002.8
03 13.01 ЮЗ 1 10 км слаб. ливневой дождь [диам. отлож. мокр. снега мм] 10/10 600 м
[Cb cap]
+0.8 +0.1 95 -1 -1 1008.4 1002.4 +0.1 6 <0.5
06 13.01 Ю 2 10 км слаб. ливневой снег 10/10 300 м
[Cb cap]
+0.5 -0.2 95 -3 -3 1008.9 1003.0
09 13.01 ЮЗ 2 4000 м дымка {ливн. осадки} 10/10 600 м
[Cb cap]
+1.9 +1.0 94 -2 -2 1008.9 1002.9
12 13.01 З 3 10 км {ливн. осадки} 10/10 600 м
[Cb cap]
+2.1 -1.4 78 -2 -2 1009.3 1003.3
15 13.01 СЗ 2 10 км 9/8 600 м
[Cb cap Ac trans]
+0.7 -2.8 77 -3 -3 1009.5 1003.5 +2.4 2
18 13.01 штиль 0 10 км 10/10 600 м
[Cb cap]
-0.5 -2.8 84 -2 -2 1009.8 1003.8
21 13.01 штиль 0 4000 м дымка 5/5 1500 м
[Sc]
-1.7 -2.8 92 -3 -3 1010.1 1004.0
00 14.01 ЮВ 1 4000 м дымка 9/9 1000 м
[Sc]
-1.7 -2.5 94 -4 -4 1009.1 1003.0
03 14.01 В 2 4000 м дымка 10/10 1000 м
[Sc]
-0.8 -2.0 92 -5 -5 1007.4 1001.3 -2.4
06 14.01 В 2 4000 м дымка {ливн. осадки} 10/10 600 м
[Cb cap]
+0.2 -1.1 91 -4 -4 1006.6 1000.6
09 14.01 ЮВ 3 10 км слаб. ливневой дождь 10/10 600 м
[Cb cap]
+1.6 +0.1 90 -3 -3 1005.5 999.5
12 14.01 ЮВ 3 10 км слаб. ливневой дождь 10/10 600 м
[Cb cap]
+2.1 +1.2 94 -2 -2 1004.5 998.5
15 14.01 ЮВ 3 10 км слаб. ливневой дождь 10/10 600 м
[Cb cap]
+3.6 +2.7 94 -0 -0 1003.5 997.6 +3.6 8
18 14.01 ЮВ 3 10 км {ливн. осадки} 9/8 600 м
[Cb cap Ac trans]
+2.6 +1.1 90 -2 -2 1002.8 996.8
21 14.01 З 1 10 км слаб. ливневой дождь 10/10 600 м
[Cb cap]
+3.3 +2.1 92 +2 +2 1003.6 997.6
00 15.01 ЮЗ 5-10
{10}
10 км слаб. ливневой дождь 10/10 600 м
[Cb cap]
+5.8 +2.8 81 +1 +1 1004.5 998.6
03 15.01 Ю 4
{10}
4000 м ливневой дождь 10/10 300 м
[Cb cap]
+5.3 +3.1 86 +1 +1 1004.2 998.3 +2.4 6
06 15.01 Ю 3
{10}
10 км в посл. час ливневой дождь 10/8 600 м
[Cb cap Ac und]
+5.7 +3.2 84 +2 +2 1005.1 999.2
09 15.01 ЮВ 2 10 км слаб. ливневой дождь 10/10 600 м
[Cb cap]
+4.5 +3.1 91 +2 +2 1005.0 999.1
12 15.01 СВ 2 10 км в посл. час ливневой дождь 10/10 600 м
[Cb cap]
+5.8 +3.3 84 +3 +3 1003.9 998.0
15 15.01 В 3 10 км в посл. час ливневой дождь 10/10 600 м
[Cb cap]
+5.7 +3.0 83 +2 +2 1002.2 996.3 +6.0 2
18 15.01 ЮВ 2 10 км слаб. ливневой дождь 10/10 600 м
[Cb cap]
+5.5 +3.2 85 +3 +3 1001.1 995.2
21 15.01 В 1 10 км слаб. ливневой дождь 10/10 600 м
[Cb cap]
+4.7 +2.5 86 +3 +3 998.5 992.6
00 16.01 СВ 2 10 км слаб. ливневой дождь 10/10 600 м
[Cb cap]
+3.4 +2.2 92 0 0 996.3 990.5
03 16.01 ЮВ 4 4000 м ливневой дождь 10/10 600 м
[Cb cap]
+2.8 +2.0 94 -2 -2 994.8 988.9 +2.2 10

 

Местоположение метеостанции Кореновск (Краснодарский край, Россия): широта 45.47 долгота 39.48 высота над уровнем моря 48 м.

В архиве по умолчанию представлена погода в Кореновске за последнюю неделю. Архивные данные за месяц целиком и за предыдущие месяцы, начиная с января 2011 года, Вы можете получить, выбрав интересующий диапазон дат из раскрывающегося списка и нажав кнопку "Ввод!".


*Определитесь, кто Вы:
робот инопланетянин человек

Внимание! Время в таблицах - всемирное. Для получения местного времени необходимо прибавить поправку, которая равна 3 ч.

Смотрите также архив погоды в соседних городах и на ближайших метеорологических станциях:

Погода в Усть-Лабинске (Краснодарский край, Россия) (33 км)
Погода в Тимашевске (Краснодарский край, Россия) (46 км)
Погода в Краснодаре (Краснодарский край, Россия) (59 км)
Погода в Тихорецке (Краснодарский край, Россия) (63 км)
Погода в Каневской (Краснодарский край, Россия) (78 км)
Погода в Сосыке (Краснодарский край, Россия) (78 км)
Погода в Кропоткине (Краснодарский край, Россия) (85 км)
Погода в Белореченске (Краснодарский край, Россия) (87 км)
Погода в Дондуковской (Адыгея, Россия) (96 км)
Погода в Горячем Ключе (Краснодарский край, Россия) (98 км)

Пояснения к столбцам:

Ветер - указаны скорость ветра в м/с - средняя за 10 мин, порывы в срок и между сроками (в фигурных скобках) и направление, откуда дует ветер: С - северный, СВ - северо-восточный, В - восточный, ЮВ - юго-восточный, Ю - южный, ЮЗ - юго-западный, З - западный, СЗ - северо-западный.
Видимость - горизонтальная дальность видимости в метрах или километрах. При видимости от 1 до 10 км при отсутствии осадков обычно наблюдается дымка, при ухудшении видимости до 1 км и менее - туман. В сухую погоду видимость может ухудшаться дымом, пылью или мглою.
Явления - указаны атмосферные явления, наблюдавшиеся в срок или в последний час перед сроком; фигурными скобками обозначены явления, наблюдавшиеся между сроками (за 1-3 часа до срока); квадратными скобками обозначены град или гололедные отложения с указанием их диаметра в мм.
Облачность - указаны через наклонную черту общая и нижняя облачность в баллах и высота нижней границы облаков в метрах; квадратными скобками обозначены формы облаков: Ci - перистые, Cs - перисто-слоистые, Cc - перисто-кучевые, Ac - высококучевые, As - высокослоистые, Sc - слоисто-кучевые, Ns - слоисто-дождевые, Cu - кучевые, Cb - кучево-дождевые. Подробнее классификацию облаков см. в Атласе облаков (PDF).
T - Температура воздуха - температура, измеренная на высоте 2 м над землей.
Td - Температура точки росы - температура, при понижении до которой содержащийся в воздухе водяной пар достигнет насыщения.
f - Относительная влажность воздуха - влажноcть воздуха, измеренная на высоте 2 м над землей.
Te - Эффективная температура - температура, которую ощущает одетый по сезону человек в тени. Характеристика душности погоды. При расчете учитывается влияние влажности воздуха и скорости ветра на теплоощущения человека.
Tes - Эффективная температура на солнце - температура, которую ощущает человек, с поправкой на солнечный нагрев. Характеристика знойности погоды. Зависит от высоты солнца над горизонтом, облачности и скорости ветра. Ночью, в пасмурную погоду, а также при ветре 12 м/с и более поправка равна нулю.
P - Атмосферное давление - приведенное к уровню моря атмосферное давление.
Po - Атмосферное давление - измеренное на уровне метеостанции атмосферное давление.
Tmin - Минимальная температура - минимум температуры воздуха на высоте 2 м над землей.
Tmax - Максимальная температура - максимум температуры воздуха на высоте 2 м над землей.
R - Количество осадков - Количество выпавших осадков за период времени, мм. При наведении курсора мыши на число - период времени, за который выпало указанное количество осадков.
R24 - Количество осадков - Количество выпавших осадков за 24 часа, мм.
S - Снежный покров - Высота снежного покрова, см. При наведении курсора мыши на число - состояние снежного покрова и степень покрытия местности в баллах.